Satellite-Ground Cal/Val Site Overpasses Predictions

Prediction of Satellite NPP Overpassing Cal/Val Site: Antarctic Dome C

Ground Cal/Val Site Location: Latitude: -75.10, Longitude: 123.35; Satellite-Ground Site NADIR distance within 100 km.

Table of predicted overpasses for the next 14.0 days since TLE Epoch: 11/6/2015
Interval Starting Time Ending Time Minimum Distance Time Minimum Distance (km)
1 11/08/2015 14:57:32 11/08/2015 14:58:01 11/08/2015 14:57:46 17.67
2 11/09/2015 14:38:50 11/09/2015 14:39:03 11/09/2015 14:38:57 89.27
3 11/10/2015 07:40:22 11/10/2015 07:40:49 11/10/2015 07:40:36 39.35
4 11/11/2015 07:21:35 11/11/2015 07:21:56 11/11/2015 07:21:46 70.66
5 11/13/2015 15:03:50 11/13/2015 15:04:15 11/13/2015 15:04:02 55.23
6 11/14/2015 14:45:01 11/14/2015 14:45:26 11/14/2015 14:45:13 53.93
7 11/15/2015 07:46:43 11/15/2015 07:47:02 11/15/2015 07:46:52 75.00
8 11/16/2015 07:27:49 11/16/2015 07:28:16 11/16/2015 07:28:02 32.96
9 11/18/2015 15:10:14 11/18/2015 15:10:24 11/18/2015 15:10:19 93.34
